Location: Mohawk View
(42.7837°N, 73.7885°W)
Time: 13:31:58
(UTC+00:00)

X-37B - Pass Details

Date: 17 June 2021
Orbit: 383 x 392 km, 45.0° (Epoch: 01 July)

Event Time Altitude Azimuth Distance (km) Brightness Sun altitude
Exits shadow 07:53:23 - 283° (WNW) 1,796 3.7 -12.3°
Reaches altitude 10° 07:54:20 10° 285° (WNW) 1,407 3.2 -12.1°
Maximum altitude 07:57:27 56° 5° (N) 461 1.2 -11.8°
Drops below altitude 10° 08:00:35 10° 86° (E) 1,410 4.1 -11.4°
Sets 08:02:41 0° 90° (E) 2,265 5.1 -11.1°
